Location: Marcé
(47.5801°N, 0.3280°W)
Time: 22:53:56
(UTC+01:00)

S-56A Canister/Altair - Pass Details

Date: 01 December 2021
Orbit: 633 x 2499 km, 38.9° (Epoch: 16 January)

Event Time Altitude Azimuth Distance (km) Brightness Sun altitude
Rises 03:50:09 0° 252° (WSW) 4,181 - -45.8°
Reaches altitude 10° 03:53:39 10° 244° (WSW) 2,914 - -45.3°
Maximum altitude 03:59:36 35° 182° (S) 1,329 - -44.3°
Drops below altitude 10° 04:04:06 10° 116° (ESE) 2,180 - -43.6°
Exits shadow 04:05:13 - 111° (ESE) 2,576 10.7 -43.4°
Sets 04:06:22 0° 107° (ESE) 3,000 11.2 -43.2°
